CES5255 ZSNJ-ZHCC

Flight info

Callsign CES5255
Flight time N/A
Altitude 30100
Route SUNBO W163 HFE B208 FYG W596 UNTEL UNT11U
Aircraft A320/M-SDE3FGHIRWY/LB1

Departure

Time 2026-05-09 08:27
Airport Nanjing Lukou International Airport (ZSNJ)

Arrival

Time N/A
Airport Zhengzhou Xinzheng International Airport (ZHCC)
Time Latitude Longitude Altitude Speed Heading
2026-05-09 08:03 31.74036 118.86741 59 ft 0 kts 58°
2026-05-09 08:19 31.74036 118.86742 58 ft 1 kts 58°
2026-05-09 08:19 31.74043 118.86756 58 ft 3 kts 58°
2026-05-09 08:19 31.74062 118.86776 38 ft 4 kts 26°
2026-05-09 08:20 31.74096 118.86766 58 ft 6 kts 330°
2026-05-09 08:20 31.74136 118.86737 53 ft 8 kts 328°
2026-05-09 08:20 31.74188 118.86741 54 ft 9 kts 42°
2026-05-09 08:20 31.74227 118.86808 57 ft 11 kts 58°
2026-05-09 08:21 31.74270 118.86890 52 ft 13 kts 58°
2026-05-09 08:21 31.74310 118.86929 53 ft 8 kts 358°
2026-05-09 08:21 31.74365 118.86902 54 ft 9 kts 358°
2026-05-09 08:21 31.74412 118.86955 57 ft 11 kts 57°
2026-05-09 08:22 31.74456 118.87036 54 ft 13 kts 58°
2026-05-09 08:22 31.74506 118.87129 56 ft 15 kts 58°
2026-05-09 08:22 31.74564 118.87238 54 ft 17 kts 58°
2026-05-09 08:22 31.74630 118.87361 52 ft 19 kts 58°
2026-05-09 08:23 31.74703 118.87498 52 ft 21 kts 58°
2026-05-09 08:23 31.74784 118.87650 51 ft 23 kts 58°
2026-05-09 08:23 31.74872 118.87813 52 ft 25 kts 58°
2026-05-09 08:23 31.74927 118.87896 55 ft 8 kts 13°
2026-05-09 08:24 31.74982 118.87868 56 ft 9 kts 328°
2026-05-09 08:24 31.74995 118.87858 54 ft 1 kts 328°
2026-05-09 08:24 31.75003 118.87852 56 ft 2 kts 328°
2026-05-09 08:24 31.75021 118.87840 54 ft 6 kts 328°
2026-05-09 08:25 31.75063 118.87808 55 ft 8 kts 327°
2026-05-09 08:25 31.75052 118.87751 58 ft 9 kts 238°
2026-05-09 08:25 31.75048 118.87744 54 ft 1 kts 238°
2026-05-09 08:25 31.75047 118.87742 54 ft 0 kts 238°
2026-05-09 08:26 31.75012 118.87677 53 ft 37 kts 238°
2026-05-09 08:26 31.74752 118.87193 52 ft 100 kts 237°
2026-05-09 08:26 31.74288 118.86326 56 ft 147 kts 238°
2026-05-09 08:26 31.73682 118.85196 262 ft 170 kts 236°
2026-05-09 08:27 31.73128 118.83957 825 ft 174 kts 244°
2026-05-09 08:27 31.72734 118.82596 1450 ft 177 kts 251°
2026-05-09 08:27 31.72376 118.81158 1834 ft 194 kts 250°
2026-05-09 08:27 31.71947 118.79547 2115 ft 219 kts 249°
2026-05-09 08:28 31.71458 118.77747 2533 ft 244 kts 249°
2026-05-09 08:28 31.70923 118.75773 3099 ft 261 kts 250°
2026-05-09 08:28 31.70377 118.73736 4003 ft 265 kts 250°
2026-05-09 08:28 31.69826 118.71661 5000 ft 267 kts 250°
2026-05-09 08:29 31.69263 118.69540 5957 ft 270 kts 251°
2026-05-09 08:29 31.68707 118.67448 6800 ft 274 kts 251°
2026-05-09 08:29 31.68135 118.65306 7635 ft 276 kts 251°
2026-05-09 08:29 31.67557 118.63138 8471 ft 279 kts 252°
2026-05-09 08:30 31.67206 118.60896 9302 ft 283 kts 270°
2026-05-09 08:30 31.67233 118.58578 10100 ft 285 kts 269°
2026-05-09 08:30 31.67206 118.56192 10519 ft 303 kts 269°
2026-05-09 08:30 31.67191 118.53623 10701 ft 326 kts 269°
2026-05-09 08:31 31.67175 118.50910 11129 ft 338 kts 269°
2026-05-09 08:31 31.67151 118.48128 11775 ft 342 kts 269°
2026-05-09 08:31 31.67122 118.45322 12442 ft 346 kts 269°
2026-05-09 08:31 31.67088 118.42473 13102 ft 350 kts 269°
2026-05-09 08:32 31.67044 118.39595 13761 ft 354 kts 269°
2026-05-09 08:32 31.66997 118.36726 14340 ft 357 kts 269°
2026-05-09 08:32 31.66896 118.30836 15492 ft 364 kts 269°
2026-05-09 08:33 31.66844 118.27856 16068 ft 366 kts 269°
2026-05-09 08:33 31.66790 118.24855 16641 ft 369 kts 269°
2026-05-09 08:33 31.66738 118.21827 17212 ft 372 kts 269°
2026-05-09 08:33 31.66686 118.18780 17789 ft 375 kts 269°
2026-05-09 08:34 31.66489 118.15741 18358 ft 378 kts 264°
2026-05-09 08:34 31.66194 118.12661 18876 ft 380 kts 264°
2026-05-09 08:34 31.65904 118.09576 19433 ft 382 kts 264°
2026-05-09 08:34 31.65613 118.06471 20022 ft 382 kts 265°
2026-05-09 08:35 31.65320 118.03369 20610 ft 383 kts 264°
2026-05-09 08:35 31.65022 118.00259 21184 ft 383 kts 264°
2026-05-09 08:35 31.64727 117.97188 21720 ft 384 kts 264°
2026-05-09 08:35 31.64428 117.94066 22253 ft 385 kts 264°
2026-05-09 08:36 31.64127 117.90947 22770 ft 385 kts 264°
2026-05-09 08:36 31.63823 117.87819 23276 ft 386 kts 264°
2026-05-09 08:36 31.63516 117.84676 23749 ft 387 kts 264°
2026-05-09 08:36 31.63208 117.81527 24169 ft 389 kts 264°
2026-05-09 08:37 31.62900 117.78373 24593 ft 389 kts 264°
2026-05-09 08:37 31.62592 117.75211 24996 ft 391 kts 265°
2026-05-09 08:37 31.62282 117.72040 25386 ft 392 kts 265°
2026-05-09 08:37 31.61969 117.68857 25780 ft 393 kts 265°
2026-05-09 08:38 31.61651 117.65666 26162 ft 394 kts 265°
2026-05-09 08:38 31.61378 117.62465 26526 ft 395 kts 269°
2026-05-09 08:38 31.61547 117.59255 26904 ft 395 kts 279°
2026-05-09 08:38 31.62258 117.56134 27281 ft 398 kts 290°
2026-05-09 08:39 31.63491 117.53206 27664 ft 402 kts 300°
2026-05-09 08:39 31.65084 117.50552 28042 ft 404 kts 303°
2026-05-09 08:39 31.66751 117.47839 28449 ft 405 kts 303°
2026-05-09 08:39 31.68376 117.45181 28819 ft 407 kts 303°
2026-05-09 08:40 31.70022 117.42476 29198 ft 407 kts 302°
2026-05-09 08:40 31.71662 117.39776 29738 ft 405 kts 302°
2026-05-09 08:40 31.73294 117.37088 30067 ft 403 kts 302°
2026-05-09 08:41 31.76522 117.31787 30131 ft 394 kts 302°
2026-05-09 08:41 31.79851 117.26679 30128 ft 394 kts 306°
2026-05-09 08:42 31.83443 117.21796 30129 ft 394 kts 308°
2026-05-09 08:42 31.87063 117.16947 30129 ft 394 kts 307°
2026-05-09 08:43 31.90608 117.12085 30133 ft 393 kts 307°
2026-05-09 08:43 31.94137 117.07168 30136 ft 393 kts 306°
2026-05-09 08:44 31.97665 117.02242 30139 ft 393 kts 306°
2026-05-09 08:44 32.01208 116.97327 30144 ft 393 kts 307°
2026-05-09 08:45 32.04757 116.92420 30145 ft 393 kts 306°
2026-05-09 08:45 32.07704 116.88338 30147 ft 393 kts 306°
2026-05-09 08:46 32.11813 116.82622 30144 ft 393 kts 306°
2026-05-09 08:46 32.15340 116.77705 30143 ft 392 kts 306°
2026-05-09 08:47 32.18291 116.73587 30140 ft 392 kts 306°
2026-05-09 08:47 32.22354 116.67845 30129 ft 391 kts 305°
2026-05-09 08:48 32.25230 116.63673 30127 ft 391 kts 305°
2026-05-09 08:48 32.28666 116.58692 30124 ft 391 kts 305°
2026-05-09 08:49 32.32088 116.53743 30118 ft 391 kts 305°
2026-05-09 08:49 32.35539 116.48765 30120 ft 391 kts 306°
2026-05-09 08:50 32.38988 116.43790 30110 ft 391 kts 305°
2026-05-09 08:50 32.42425 116.38807 30110 ft 391 kts 305°
2026-05-09 08:51 32.45855 116.33824 30105 ft 390 kts 305°
2026-05-09 08:51 32.49290 116.28838 30104 ft 390 kts 305°
2026-05-09 08:52 32.52715 116.23860 30109 ft 390 kts 305°
2026-05-09 08:52 32.56118 116.18891 30101 ft 390 kts 305°
2026-05-09 08:53 32.59574 116.13929 30100 ft 391 kts 306°
2026-05-09 08:53 32.63093 116.09015 30101 ft 391 kts 306°
2026-05-09 08:54 32.66618 116.04097 30103 ft 391 kts 306°
2026-05-09 08:54 32.70124 115.99165 30101 ft 390 kts 306°
2026-05-09 08:55 32.73620 115.94218 30104 ft 390 kts 306°
2026-05-09 08:55 32.77103 115.89276 30101 ft 390 kts 306°
2026-05-09 08:56 32.80592 115.84332 30097 ft 390 kts 306°
2026-05-09 08:56 32.84057 115.79415 30096 ft 390 kts 306°
2026-05-09 08:57 32.87580 115.74506 30092 ft 392 kts 310°
2026-05-09 08:57 32.92056 115.70668 30088 ft 401 kts 323°
2026-05-09 08:58 32.96857 115.67250 30086 ft 401 kts 323°
2026-05-09 08:58 33.01649 115.63826 30080 ft 402 kts 322°
2026-05-09 08:59 33.06441 115.60392 30079 ft 402 kts 322°
2026-05-09 08:59 33.11234 115.56943 30075 ft 401 kts 321°
2026-05-09 09:00 33.15275 115.52560 30074 ft 390 kts 306°